Location: Zagreb
(45.8000°N, 16.0000°E)
Time: 20:40:29
(UTC+02:00)

BlueWalker 3 - Visible Passes

Search period start: 24 April 2024 00:00
Search period end: 04 May 2024 00:00
Orbit: 485 x 495 km, 53.2° (Epoch: 23 April)

Date Brightness Start Highest point End Pass type
(mag) Time Alt. Az. Time Alt. Az. Time Alt. Az.
24 Apr 3.9 21:47:15 10° WNW 21:50:31 26° N 21:53:48 10° ENE visible
24 Apr 3.7 23:25:52 10° NW 23:28:26 31° NNW 23:28:26 31° NNW visible
25 Apr 3.9 21:22:27 10° WNW 21:25:43 26° N 21:29:00 10° NE visible
25 Apr 3.2 23:01:06 10° NW 23:04:28 37° N 23:04:28 37° N visible
26 Apr 3.9 20:57:38 10° WNW 21:00:55 26° N 21:04:12 10° NE visible
26 Apr 3.1 22:36:18 10° NW 22:39:52 36° NNE 22:40:27 34° NE visible
27 Apr 4.8 00:14:30 10° WNW 00:14:51 12° WNW 00:14:51 12° WNW visible
27 Apr 3.8 20:32:48 10° WNW 20:36:05 26° N 20:39:21 10° NE visible
27 Apr 3.2 22:11:29 10° NW 22:15:01 35° NNE 22:16:25 26° ENE visible
27 Apr 4.3 23:49:40 10° WNW 23:50:49 19° WNW 23:50:49 19° WNW visible
28 Apr 3.2 21:46:38 10° NW 21:50:10 34° NNE 21:52:23 19° ENE visible
28 Apr 3.7 23:24:49 10° WNW 23:26:47 28° WNW 23:26:47 28° WNW visible
29 Apr 3.2 21:21:46 10° NW 21:25:17 34° NNE 21:28:19 13° E visible
29 Apr 2.8 22:59:57 10° WNW 23:02:43 44° WNW 23:02:43 44° WNW visible
30 Apr 3.3 20:56:53 10° NW 21:00:23 33° NNE 21:03:53 10° E visible
30 Apr 1.9 22:35:03 10° WNW 22:38:38 71° WSW 22:38:38 71° WSW visible
01 May 3.3 20:31:58 10° NW 20:35:27 32° NNE 20:38:55 10° E visible
01 May 1.8 22:10:08 10° WNW 22:13:57 77° SW 22:14:35 59° SE visible
02 May 1.8 21:45:11 10° WNW 21:49:01 81° SW 21:50:32 35° SE visible
02 May 4.7 23:24:42 10° W 23:24:56 11° W 23:24:56 11° W visible
03 May 1.9 21:20:14 10° WNW 21:24:02 85° SW 21:26:30 21° SE visible
03 May 4.3 22:59:36 10° W 23:00:54 14° WSW 23:00:54 14° WSW visible
